Date String (YYYY-MM-DD hh:mm:ss) UTC,Instrument flags,Ambient pressure (hPa),Sample flow (lpm),Bypass flow (lpm),Sample temperature (°C),Ambient temperature (°C),ASC tube jacket temperature (°C),LED temperature (°C),Box temperature (°C),Sample RH (%),Span deviation,Mass concentration (μg/m³),Mass concentration (μg/m³),Mass concentration (μg/m³)
DateTimeUTC,F1_M11,P_M11,Q1_M11,Q2_M11,T1_M11,T2_M11,T3_M11,T4_M11,T5_M11,U1_M11,ZSPAN_M11,X0_M11,X2_M11,X1_M11
2022-02-27 18:00:00,,0832.3,5.00,0.00,24.7,23.9,00.0,33.4,26.6,05.7,0000.0,0002.49,0001.86,0001.61
2022-02-27 18:01:00,,0832.3,5.00,0.00,24.7,23.9,00.0,33.4,26.6,06.2,0000.0,0002.40,0001.84,0001.60
2022-02-27 18:02:00,,0832.2,5.00,0.00,24.7,24.0,00.0,33.5,26.6,05.6,0000.0,0002.35,0001.81,0001.59
2022-02-27 18:03:00,,0832.2,5.01,0.00,24.7,24.0,00.0,33.5,26.6,06.0,0000.0,0002.42,0001.83,0001.59
2022-02-27 18:04:00,,0832.2,5.00,0.00,24.7,24.0,00.0,33.5,26.6,06.0,0000.0,0002.48,0001.86,0001.59
2022-02-27 18:05:00,,0832.3,5.00,0.00,24.8,24.0,00.0,33.5,26.7,07.5,0000.0,0002.56,0001.92,0001.64
2022-02-27 18:06:00,,0832.2,5.00,0.00,24.8,24.0,00.0,33.5,26.7,08.1,0000.0,0002.75,0002.06,0001.76
2022-02-27 18:07:00,,0832.2,4.99,0.00,24.8,24.1,00.0,33.6,26.7,07.9,0000.0,0002.89,0002.19,0001.88
2022-02-27 18:08:00,,0832.2,5.00,0.00,24.8,24.1,00.0,33.6,26.7,07.9,0000.0,0003.08,0002.31,0001.97
2022-02-27 18:09:00,,0832.2,5.01,0.00,24.8,24.1,00.0,33.6,26.7,07.8,0000.0,0003.29,0002.41,0002.05
2022-02-27 18:10:00,,0832.1,5.00,0.00,24.8,24.1,00.0,33.6,26.7,07.7,0000.0,0003.40,0002.50,0002.12
2022-02-27 18:11:00,,0832.1,5.00,0.00,24.9,24.1,00.0,33.6,26.8,07.0,0000.0,0003.29,0002.48,0002.13
2022-02-27 18:12:00,,0832.1,5.00,0.00,24.9,24.2,00.0,33.7,26.8,06.6,0000.0,0003.28,0002.48,0002.13
2022-02-27 18:13:00,,0832.1,5.00,0.00,24.9,24.2,00.0,33.7,26.8,06.6,0000.0,0003.34,0002.51,0002.14
2022-02-27 18:14:00,,0832.1,4.99,0.00,24.9,24.2,00.0,33.7,26.8,06.8,0000.0,0003.38,0002.55,0002.17
2022-02-27 18:15:00,,0832.1,5.00,0.00,24.9,24.2,00.0,33.7,26.9,07.0,0000.0,0003.51,0002.60,0002.19
2022-02-27 18:16:00,,0832.1,5.01,0.00,25.0,24.2,00.0,33.7,26.9,07.2,0000.0,0003.58,0002.62,0002.21
2022-02-27 18:17:00,,0832.1,5.01,0.00,25.0,24.3,00.0,33.7,26.9,07.0,0000.0,0003.49,0002.53,0002.14
2022-02-27 18:18:00,,0832.1,5.00,0.00,25.0,24.3,00.0,33.8,26.9,07.2,0000.0,0003.51,0002.48,0002.09
2022-02-27 18:19:00,,0832.1,4.99,0.00,25.0,24.3,00.0,33.8,27.0,07.3,0000.0,0003.41,0002.40,0002.04
2022-02-27 18:20:00,,0832.1,5.00,0.00,25.0,24.4,00.0,33.8,27.0,07.6,0000.0,0003.15,0002.30,0001.99
2022-02-27 18:21:00,,0832.2,5.00,0.00,25.1,24.4,00.0,33.8,27.0,07.6,0000.0,0003.04,0002.24,0001.95
2022-02-27 18:22:00,,0832.1,5.00,0.00,25.1,24.4,00.0,33.8,27.0,07.3,0000.0,0003.02,0002.23,0001.94
2022-02-27 18:23:00,,0832.1,5.00,0.00,25.1,24.4,00.0,33.9,27.0,07.2,0000.0,0003.05,0002.25,0001.96
2022-02-27 18:24:00,,0832.1,5.00,0.00,25.1,24.4,00.0,33.9,27.1,07.3,0000.0,0003.25,0002.25,0001.97
2022-02-27 18:25:00,,0832.1,4.99,0.00,25.2,24.5,00.0,33.9,27.1,07.4,0000.0,0003.30,0002.24,0001.98
2022-02-27 18:26:00,,0832.1,5.00,0.00,25.2,24.5,00.0,33.9,27.1,07.6,0000.0,0003.81,0002.21,0001.99
2022-02-27 18:27:00,,0832.1,4.99,0.00,25.2,24.5,00.0,33.9,27.1,07.6,0000.0,0003.84,0002.20,0002.00
2022-02-27 18:28:00,,0832.1,5.00,0.00,25.2,24.5,00.0,34.0,27.2,07.8,0000.0,0003.82,0002.21,0002.01
2022-02-27 18:29:00,,0832.1,5.01,0.00,25.3,24.5,00.0,34.0,27.2,08.1,0000.0,0003.68,0002.18,0002.01
2022-02-27 18:30:00,,0832.1,5.00,0.00,25.3,24.6,00.0,34.0,27.2,08.0,0000.0,0003.68,0002.19,0002.01
2022-02-27 18:31:00,,0832.1,5.00,0.00,25.3,24.6,00.0,34.0,27.2,08.2,0000.0,0003.74,0002.24,0002.07
2022-02-27 18:32:00,,0832.1,5.00,0.00,25.3,24.6,00.0,34.1,27.2,08.2,0000.0,0003.87,0002.32,0002.14
2022-02-27 18:33:00,,0832.0,5.00,0.00,25.3,24.6,00.0,34.1,27.2,08.0,0000.0,0004.08,0002.46,0002.23
2022-02-27 18:34:00,,0832.0,5.00,0.00,25.4,24.6,00.0,34.1,27.3,08.3,0000.0,0004.19,0002.55,0002.30
2022-02-27 18:35:00,,0832.0,4.99,0.00,25.4,24.6,00.0,34.1,27.3,08.1,0000.0,0004.07,0002.64,0002.37
2022-02-27 18:36:00,,0832.0,4.99,0.00,25.4,24.7,00.0,34.1,27.3,08.1,0000.0,0004.15,0002.73,0002.44
2022-02-27 18:37:00,,0832.0,5.00,0.00,25.4,24.7,00.0,34.2,27.3,08.5,0000.0,0004.43,0002.83,0002.50
2022-02-27 18:38:00,,0832.0,5.00,0.00,25.4,24.7,00.0,34.2,27.4,08.4,0000.0,0004.73,0002.90,0002.57
2022-02-27 18:39:00,,0832.1,5.01,0.00,25.4,24.7,00.0,34.2,27.4,08.4,0000.0,0004.77,0002.96,0002.64
2022-02-27 18:40:00,,0832.0,5.01,0.00,25.5,24.7,00.0,34.2,27.4,08.1,0000.0,0004.86,0003.03,0002.71
2022-02-27 18:41:00,,0832.0,5.01,0.00,25.5,24.7,00.0,34.2,27.4,08.1,0000.0,0004.94,0003.09,0002.76
2022-02-27 18:42:00,,0832.0,4.99,0.00,25.5,24.7,00.0,34.3,27.4,08.2,0000.0,0005.02,0003.14,0002.81
2022-02-27 18:43:00,,0832.0,5.00,0.00,25.5,24.8,00.0,34.3,27.4,08.2,0000.0,0006.46,0003.19,0002.84
2022-02-27 18:44:00,,0832.0,5.01,0.00,25.5,24.8,00.0,34.3,27.4,08.1,0000.0,0006.63,0003.21,0002.87
2022-02-27 18:45:00,,0832.0,4.99,0.00,25.5,24.8,00.0,34.3,27.4,08.4,0000.0,0006.68,0003.24,0002.94
2022-02-27 18:46:00,,0831.9,5.00,0.00,25.5,24.8,00.0,34.3,27.5,08.2,0000.0,0006.83,0003.29,0003.00
2022-02-27 18:47:00,,0831.9,5.00,0.00,25.6,24.8,00.0,34.4,27.5,08.2,0000.0,0007.44,0003.31,0003.04
2022-02-27 18:48:00,,0831.8,4.99,0.00,25.6,24.8,00.0,34.4,27.5,08.5,0000.0,0007.46,0003.33,0003.09
2022-02-27 18:49:00,,0831.7,5.00,0.00,25.6,24.8,00.0,34.4,27.5,08.2,0000.0,0007.12,0003.37,0003.12
2022-02-27 18:50:00,,0831.8,5.01,0.00,25.6,24.8,00.0,34.4,27.5,08.4,0000.0,0007.34,0003.42,0003.15
2022-02-27 18:51:00,,0831.8,5.01,0.00,25.6,24.8,00.0,34.4,27.5,08.3,0000.0,0007.45,0003.45,0003.17
2022-02-27 18:52:00,,0831.7,5.00,0.00,25.6,24.8,00.0,34.5,27.5,08.2,0000.0,0007.64,0003.48,0003.19
2022-02-27 18:53:00,,0831.7,5.01,0.00,25.6,24.8,00.0,34.5,27.5,08.6,0000.0,0007.78,0003.50,0003.21
2022-02-27 18:54:00,,0831.7,5.00,0.00,25.6,24.9,00.0,34.5,27.5,08.3,0000.0,0006.84,0003.50,0003.23
2022-02-27 18:55:00,,0831.7,5.00,0.00,25.6,24.9,00.0,34.5,27.5,08.7,0000.0,0006.61,0003.47,0003.23
2022-02-27 18:56:00,,0831.7,5.00,0.00,25.7,24.9,00.0,34.5,27.5,08.6,0000.0,0006.57,0003.47,0003.23
2022-02-27 18:57:00,,0831.7,5.00,0.00,25.7,24.9,00.0,34.5,27.6,08.5,0000.0,0006.52,0003.46,0003.24
2022-02-27 18:58:00,,0831.7,5.00,0.00,25.7,24.9,00.0,34.5,27.6,08.5,0000.0,0005.59,0003.45,0003.24
2022-02-27 18:59:00,,0831.7,5.00,0.00,25.7,24.9,00.0,34.5,27.6,08.7,0000.0,0005.18,0003.44,0003.24
